STARLINK-36814

Last updated on Tue Mar 24 2026 00:02:05 GMT+0000 (Coordinated Universal Time)

1 67904U 26036A 26081.61454414 .00092713 00000+0 15665-2 0 9995 2 67904 43.0003 173.6060 0001813 246.0294 114.0377 15.50597032 5680
UTC large
Height (km)
Speed (km/s)
/
Latitude / Longitude
Inclination (degrees)
Orbital Period (minutes)
Azimuth
Elevation
Range (km)
Doppler Factor

Next 0 passes for location: London (51.5072 / 0.1276)

Sorry there are no passes over London.